Location: Góry Miechowskie
(50.3599°N, 20.1803°E)
Time: 15:02:11
(UTC+00:00)

AQUA - Pass Details

Date: 23 September 2024
Orbit: 691 x 694 km, 98.3° (Epoch: 09 October)

Event Time Altitude Azimuth Distance (km) Brightness Sun altitude
Rises 00:01:21 0° 29° (NNE) 3,079 8.1 -36.3°
Reaches altitude 10° 00:04:33 10° 52° (NE) 2,155 7.0 -36.1°
Enters shadow 00:06:32 15° 77° (ENE) 1,849 6.3 -35.9°
